Accueil
METAR-TAF:

METAR-TAF

Aéroports :

RAF

Holbeach, Angleterre

latitude: 52-52N, longitude: 000-09E, altitude: 3 m

Observation

Le bulletin a été fait il y a 1 heure et 44 minutes, à 03:20 UTC
Vent 5 kt de ouest/sud-ouest
Température 10°C
Humidité 100%
Pression 1026 hPa
Visibilité 10 km ou plus

METAR: EGYH 060320Z AUTO 24005KT 9999 OVC031/// 10/10 Q1026

Heure: 06:04 (05:04 UTC)


TAF: absent

Observations et prévisions météorologiques de plus de 4000 aéroports (messages METAR et TAF).

Les stations disponibles sont représentées par des disques jaunes et rouges sur la carte.

Passer la souris dessus pour voir le nom de la station.

Cliquer dessus pour voir les observations et prévisions météorologiques.

Pour changer de carte: cliquez sur les boutons verts avec une croix noire pour zoomer, sur le bouton vert avec un tiret pour effectuer un zoom arrière, ou sur les flèches vertes pour les cartes adjacentes.


METAR-TAF: